Simultaneous Nadir Overpasses (SNOs) Predictions

Prediction of SNOs between METOP-B and TERRA Satellite Orbit:

Table of predicted SNOs for the next 14.0 days since TLE Epoch: 4/18/2020
Index Date (METOP-B) Time (METOP-B) Lat,Lon (METOP-B) SZA (METOP-B ) Date (TERRA) Time (TERRA) Lat,Lon (TERRA) SZA (TERRA ) Distance(km) Time Diff (sec)
1 04/18/2020 03:16:29 -81.31, -1.88 106.80 04/18/2020 03:16:59 -81.31, -1.79 106.77 1.52 30
2 04/18/2020 04:07:09 81.32, 165.92 73.25 04/18/2020 04:06:25 81.31, 165.97 73.24 0.78 44
3 04/20/2020 22:50:51 -81.31, 64.84 107.70 04/20/2020 22:51:12 -81.31, 64.66 107.72 3.09 21
4 04/20/2020 23:41:32 81.31,-127.78 72.30 04/20/2020 23:40:38 81.31,-127.61 72.29 2.86 54
5 04/23/2020 18:25:13 -81.31, 131.15 108.63 04/23/2020 18:25:24 -81.30, 131.04 108.65 2.06 11
6 04/23/2020 19:15:53 81.32, -61.11 71.41 04/23/2020 19:14:50 81.31, -61.26 71.36 2.74 63
7 04/26/2020 13:08:58 81.30, 29.09 70.35 04/26/2020 13:10:12 81.26, 29.00 70.35 4.59 74
8 04/26/2020 13:59:35 -81.32,-162.16 109.49 04/26/2020 13:59:36 -81.32,-162.26 109.50 1.73 1
9 04/26/2020 14:50:15 81.32, 5.56 70.55 04/26/2020 14:49:02 81.32, 5.42 70.50 2.23 73
10 04/29/2020 08:43:18 81.31, 96.53 69.61 04/29/2020 08:44:22 81.31, 96.38 69.62 2.56 64




NCC Satellite Simultaneous Nadir Overpasses (SNOs) Prediction Service
